Back to catalog

STARLINK-37817

AliveCommunicationsSSO
NORAD 69480·PAYLOAD·🇺🇸 United States

Launched Jun 11, 2026 from Vandenberg Space Force Base

Loading…

Next Passes (next 24 hours)

TLE

FreshSource: CelesTrak SupGP

Epoch: Sep 14, 2026, 14:46 UTC

1 69480C 26131C   26257.61576389 -.00025247  00000+0 -78360-3 0  2572
2 69480  97.2832 278.5105 0001560  96.5049 203.7860 15.33456295    13

Track STARLINK-37817 in real time with AllMySat

Download on the App Store